Location: Little Bennett Regional Park
(39.2840°N, 77.2890°W)
Time: 00:33:44
(UTC-04:00)

Daily predictions for brighter satellites

Satellite Brightness Start Highest point End
(mag) Time Altitude Azimuth Time Altitude Azimuth Time Altitude Azimuth
Terra 3.4 00:04:36 26° W 00:04:36 26° W 00:08:23 10° NW
Cosmos 1833 Rocket 3.3 00:01:15 10° NW 00:06:17 46° W 00:06:17 46° W
Meteor 1-13 Rocket 4.4 00:06:01 10° NNW 00:11:53 72° W 00:11:53 72° W
Cosmos 1943 Rocket 4.3 00:14:55 14° ENE 00:14:55 14° ENE 00:16:20 10° ENE
NOSS 3-1 (A) 4.5 00:06:26 10° NNW 00:13:50 53° NE 00:16:17 41° E
H-2A R/B 3.9 00:15:18 21° W 00:15:47 21° W 00:19:46 10° NW
Lacrosse 5 3.3 00:22:41 30° NE 00:22:41 30° NE 00:25:13 10° NE
Meteor 2-4 Rocket 3.9 00:16:11 10° N 00:20:52 63° NNE 00:20:52 63° NNE
Cosmos 1821 Rocket 4.0 00:21:38 74° W 00:21:49 74° W 00:28:05 10° N
Cosmos 1605 Rocket 4.1 00:22:39 65° ENE 00:22:39 65° ENE 00:28:41 10° NNE
Meteor 1-11 Rocket 4.0 00:22:41 65° WNW 00:22:41 65° WNW 00:28:26 10° N
Cosmos 2082 Rocket 3.7 00:18:47 10° NW 00:23:06 26° W 00:23:06 26° W
Cosmos 2285 Rocket 4.0 00:24:14 68° ENE 00:24:14 68° ENE 00:30:04 10° NNE
H-2A R/B 4.2 00:26:28 10° NNE 00:29:00 31° NNE 00:29:00 31° NNE
ATLAS 2AS CENTAUR R/B 4.3 00:27:39 10° NNW 00:34:52 33° NE 00:39:40 18° E
Cosmos 1934 Rocket 4.1 00:38:39 65° WNW 00:38:39 65° WNW 00:44:32 10° N
Cosmos 2123 Rocket 4.0 00:33:08 10° N 00:39:07 79° NW 00:39:07 79° NW
NOSS 3-1 (C) 3.9 00:37:36 10° NW 00:45:18 87° SW 00:46:09 74° SSE
ALOS 2 4.1 00:49:23 35° NNW 00:49:23 35° NNW 00:51:57 10° NNW
MOS 1-B Rocket 4.0 01:01:46 79° NNE 01:01:46 79° NNE 01:08:01 10° NNW
Cosmos 2369 Rocket 2.8 01:12:49 52° NW 01:12:49 52° NW 01:17:53 10° NNE
CZ-2C R/B 3.7 01:29:51 50° NNE 01:29:51 50° NNE 01:33:37 10° N
CZ-2C R/B 3.1 01:25:15 10° N 01:29:23 56° N 01:29:23 56° N
Cosmos 2100 Rocket 4.2 01:44:59 65° WNW 01:44:59 65° WNW 01:51:05 10° N
SeaSat 1 3.4 01:47:23 42° NE 01:47:23 42° NE 01:51:53 10° NNW
Cosmos 1656 Rocket 4.2 01:52:01 53° ENE 01:52:01 53° ENE 01:56:35 10° NNE
Lacrosse 5 rocket 3.9 01:53:22 14° NNW 01:53:22 14° NNW 01:55:17 10° N
Cosmos 2061 Rocket 4.2 01:54:19 61° WNW 01:54:19 61° WNW 02:00:32 10° N
Cosmos 1943 Rocket 2.7 01:56:26 54° NW 01:56:26 54° NW 02:01:22 10° NNE
Lacrosse 5 3.8 02:01:49 20° WNW 02:03:33 23° NNW 02:07:39 10° NNE
NOSS 3-3 (A) 4.1 02:04:20 65° E 02:04:20 65° E 02:10:29 10° NE
NOSS 3-3 (C) 4.1 02:04:26 64° E 02:04:26 64° E 02:10:34 10° NE
Cosmos 968 Rocket 4.2 01:59:31 10° NNW 02:03:20 49° NNW 02:03:20 49° NNW
Cosmos 2016 Rocket 4.1 02:06:32 65° WNW 02:06:32 65° WNW 02:12:17 10° N
Cosmos 1241 Rocket 4.4 02:02:10 10° NNW 02:08:34 86° WNW 02:08:34 86° WNW
Cosmos 1802 Rocket 4.3 02:08:59 52° WNW 02:08:59 52° WNW 02:14:54 10° N
Cosmos 1818 4.5 02:09:31 40° NW 02:09:32 40° NW 02:14:42 10° NNE
Cosmos 2098 Rocket 4.0 02:09:41 80° SE 02:10:02 84° E 02:17:30 10° N
Cosmos 1864 Rocket 4.4 02:26:09 71° W 02:26:11 71° W 02:32:26 10° N
ATLAS 2AS CENTAUR R/B 2.9 02:18:30 10° NW 02:26:30 68° WSW 02:27:02 66° SW
Meteor 2-17 Rocket 4.4 02:28:56 70° ESE 02:29:17 71° E 02:35:22 10° NNE
Cosmos 44 Rocket 4.3 02:25:03 10° NW 02:28:22 40° NW 02:28:22 40° NW
Cosmos 2208 Rocket 4.1 02:35:00 71° NNE 02:35:00 71° NNE 02:39:42 10° NNE
Meteor 1-21 4.4 02:30:50 10° NNW 02:35:42 58° WNW 02:35:42 58° WNW
ATLAS CENTAUR R/B 3.8 02:38:00 19° ESE 02:38:00 19° ESE 02:41:10 10° ENE
Cosmos 1725 Rocket 4.2 02:40:59 52° W 02:41:05 52° W 02:47:07 10° N
Milstar 3 Cent rocket 4.4 02:47:57 12° ESE 02:47:57 12° ESE 02:48:49 10° ESE
BREEZE-M DEB (TANK) 3.6 02:40:32 10° NW 02:46:28 39° NNE 02:46:35 39° NNE
Cosmos 1816 Rocket 4.4 02:40:38 10° NNW 02:46:52 69° W 02:47:09 68° WSW
CBERS-1 4.4 02:43:26 10° NNE 02:48:29 54° E 02:48:35 54° ESE
Meteor 1-15 Rocket 4.1 02:50:43 78° WSW 02:50:56 80° W 02:56:51 10° N
Tsikada Rocket 4.3 02:44:55 10° NNW 02:50:56 50° W 02:50:56 50° W
CZ-2D R/B 4.1 02:54:12 10° NE 02:58:18 21° E 03:00:39 16° SE
Cosmos 2082 4.5 02:54:06 10° NNW 02:59:33 48° ENE 03:03:04 21° SE
Cosmos 1697 Rocket 4.4 02:57:51 19° SE 02:59:35 22° E 03:03:48 10° NE
SL-16 R/B 4.1 02:54:29 10° SE 02:59:49 32° ENE 03:05:09 10° N
IRS-1C 4.4 02:55:00 10° NNE 03:00:16 58° E 03:00:55 54° SE
Cosmos 2228 3.9 03:02:32 41° NW 03:02:32 41° NW 03:05:43 10° N
Meteor 2-9 Rocket 4.4 03:01:24 57° W 03:01:42 58° WNW 03:07:27 10° N
Meteor 2-5 Rocket 4.5 02:56:23 10° N 03:02:07 51° ENE 03:04:43 31° SE
USA 161 4.4 03:03:09 17° NE 03:03:09 17° NE 03:04:36 10° NNE
SL-08 R/B 3.2 03:03:27 81° NE 03:03:27 81° NE 03:07:59 10° N
Cosmos 2219 4.2 03:00:29 10° NW 03:04:08 31° WNW 03:04:08 31° WNW
Cosmos 1980 Rocket 4.5 03:04:30 10° SE 03:07:18 15° E 03:10:15 10° ENE
Cosmos 2227 Rocket 2.5 03:05:53 10° NNW 03:11:33 64° ENE 03:14:30 28° SE
Cosmos 44 3.5 03:09:21 10° NW 03:13:39 57° WNW 03:13:39 57° WNW
IRS-P3 4.2 03:11:06 10° N 03:16:22 59° WNW 03:16:49 56° W
ISS -0.1 03:15:25 10° NNW 03:17:29 16° NNE 03:19:34 10° ENE
Cosmos 468 Rocket 4.2 03:16:49 54° SE 03:17:35 61° ESE 03:22:40 10° NNE
NOSS 2-1 (D) 3.7 03:20:56 60° E 03:20:56 60° E 03:24:46 10° NE
NOSS 2-1 (C) 3.6 03:22:15 61° E 03:22:15 61° E 03:26:08 10° NE
SeaSat 1 4.3 03:27:11 18° WNW 03:27:11 18° WNW 03:28:52 10° NW
Cosmos 2150 Rocket 4.2 03:19:56 10° NNW 03:25:10 66° ENE 03:27:36 31° SE
Cosmos 2278 3.6 03:25:11 60° SW 03:26:12 76° WNW 03:31:53 10° NNE
Cosmos 2369 3.6 03:25:57 60° SSW 03:27:01 85° WNW 03:32:44 10° NNE
Cosmos 1812 Rocket 3.7 03:27:58 63° WNW 03:27:58 63° WNW 03:32:17 10° N
Cosmos 2297 Rocket 2.4 03:27:37 10° NNW 03:33:16 68° ENE 03:38:13 14° SSE
NOSS 2-1 (E) 3.2 03:36:51 85° S 03:36:57 88° ESE 03:41:23 10° NE
Cosmos 405 Rocket 2.7 03:34:39 10° NNW 03:38:36 77° WNW 03:38:36 77° WNW
Cosmos 1898 Rocket 3.4 03:33:44 10° NNW 03:39:06 90° WSW 03:41:29 34° SSE
Cosmos 1766 4.3 03:38:10 34° SE 03:39:07 41° E 03:42:51 10° NNE
NPP 4.3 03:37:31 10° N 03:42:31 40° WNW 03:43:33 36° W
Cosmos 1464 Rocket 4.1 03:42:23 43° SW 03:44:14 60° W 03:50:30 10° N
Resurs 1-4 Rocket 2.5 03:39:46 10° NNE 03:44:59 57° E 03:47:24 30° SSE
BREEZE-M DEB (TANK) 3.5 03:44:28 39° S 03:45:48 49° SE 03:49:41 10° ENE
Cosmos 972 Rocket 4.5 03:44:05 10° NNW 03:48:35 39° W 03:48:35 39° W
NOSS 3-4 (A) 4.1 03:42:19 10° NNW 03:49:18 68° NE 03:56:41 10° SE
NOSS 3-4 (C) 4.1 03:42:25 10° NNW 03:49:26 68° NE 03:56:50 10° SE
Cosmos 841 Rocket 4.1 03:48:13 29° SSE 03:50:37 50° ESE 03:55:44 10° NNE
Meteor 1-24 Rocket 3.8 03:46:51 10° N 03:52:34 79° E 03:57:00 18° SSE
UNKNOWN OBJECT B 3.9 03:49:25 10° NNE 03:53:07 39° E 03:54:34 28° SE
ADEOS 3.8 03:48:12 10° N 03:53:19 56° WNW 03:54:45 42° WSW
Cosmos 1937 Rocket 3.4 03:48:30 10° NNW 03:53:42 87° ENE 03:57:29 19° SSE
Cosmos 1378 3.8 03:54:41 10° N 03:58:25 54° E 04:00:20 26° SSE
Cosmos 1763 Rocket 3.7 03:56:08 33° S 03:58:26 69° ESE 04:03:36 10° NNE
Okean 3 Rocket 3.5 03:55:09 10° NNW 03:59:30 61° W 04:00:20 50° SW
Cosmos 1953 3.8 03:57:40 18° SSE 04:00:05 34° E 04:03:47 10° NNE
Cosmos 1092 Rocket 4.3 03:55:38 10° N 04:01:54 66° E 04:08:10 10° SSE
SL-24 R/B 4.3 04:00:37 32° S 04:02:54 70° WSW 04:07:31 10° NNW
ARIANE 5 R/B 2.5 03:57:55 10° N 04:03:02 73° WNW 04:05:07 37° SSW
EO 1 Del DPAF 3.4 04:02:20 28° SSE 04:04:16 74° ENE 04:08:09 10° N
BREEZE-M DEB (TANK) 3.9 04:04:08 22° W 04:07:12 41° NW 04:09:52 10° NE
NOSS 7 (D) 4.3 04:06:57 63° SSW 04:07:25 82° ESE 04:10:48 10° NE
ERS-2 3.5 04:05:23 10° NNW 04:08:32 26° WNW 04:08:37 26° WNW
Meteor 2-12 Rocket 4.3 04:05:20 29° SSW 04:08:34 78° W 04:14:39 10° N
CZ-2D R/B 4.2 04:08:45 10° NNE 04:13:00 54° E 04:15:52 20° S
Cosmos 1805 4.3 04:10:29 18° SSE 04:13:01 43° E 04:16:44 10° NNE
Cosmos 1441 Rocket 3.4 04:12:21 10° N 04:16:22 78° E 04:19:17 18° SSE
ATLAS CENTAUR R/B 2.2 04:14:21 33° WSW 04:16:23 55° NW 04:21:19 10° NNE
SME Rocket 4.1 04:14:20 25° S 04:17:32 58° W 04:25:15 10° NNW
Cosmos 1707 3.8 04:15:37 10° NNW 04:18:54 28° W 04:18:54 28° W
GPS 2-04 Rocket1 3.0 04:19:01 41° SSW 04:19:45 47° S 04:23:26 10° E
Cosmos 1656 4.1 04:23:00 27° SW 04:25:51 51° WNW 04:31:23 10° NNE
IRS-1D 3.9 04:22:17 10° N 04:27:00 46° WNW 04:29:23 26° SW
Cosmos 540 Rocket 4.4 04:26:53 10° S 04:31:43 44° ESE 04:36:37 10° NNE
USA 161 4.0 04:34:18 11° WNW 04:34:18 11° WNW 04:34:35 10° WNW
ASTRO E2 4.0 04:38:07 22° SSW 04:38:22 22° S 04:41:32 10° SE
CZ-2D R/B 2.6 04:33:21 10° N 04:38:35 47° WNW 04:41:59 21° SW
Okean O Rocket 1.7 04:36:18 10° NNE 04:40:42 76° ESE 04:44:40 13° S
Cosmos 1076 Rocket 3.9 04:38:07 10° NNW 04:42:12 42° W 04:44:52 19° SSW
Cosmos 1743 Rocket 3.6 04:37:55 10° N 04:42:16 78° E 04:46:37 10° S
Cosmos 1697 Rocket 3.1 04:39:37 21° SW 04:43:08 49° WNW 04:48:38 10° NNE
SL-16 R/B 3.0 04:38:42 16° SSW 04:43:16 39° W 04:49:02 10° NNW
Cosmos 2279 Rocket 4.4 04:37:29 10° S 04:43:40 65° E 04:49:52 10° NNE
In-Cosmos 22 4.0 04:40:05 10° NNW 04:45:23 77° W 04:50:40 10° S
BREEZE-M DEB (TANK) 4.0 04:47:14 10° NW 04:49:51 32° NNE 04:54:22 10° E
Cosmos 1980 Rocket 2.2 04:46:17 18° SSW 04:50:35 71° WNW 04:56:15 10° NNE
USA 81 4.1 04:46:27 10° S 04:51:44 89° E 04:57:03 10° N
ISS -3.2 04:51:06 10° NW 04:54:22 77° NE 04:57:37 10° SE
IRS-1C Rocket 4.1 04:49:39 10° N 04:54:55 74° WNW 05:00:04 10° SSW
Cosmos 2227 Rocket 3.7 04:51:34 10° WNW 04:54:58 16° W 04:56:12 15° WSW
Cosmos 1544 3.0 04:52:59 11° S 04:56:27 88° W 05:00:07 10° N
Cosmos 1655 Rocket 4.1 04:50:35 10° N 04:57:02 88° W 05:03:25 10° S
CZ-4B R/B 2.9 04:53:41 10° NNE 04:57:40 74° ESE 05:01:25 10° S
ADEOS II 3.8 04:53:11 10° NNE 04:57:53 32° E 05:02:34 10° SSE
Cosmos 2322 Rocket 2.8 04:55:38 10° S 05:01:06 55° ESE 05:06:34 10° NNE
Cosmos 371 Rocket 4.1 04:56:57 10° S 05:01:37 51° ESE 05:06:17 10° NNE
Cosmos 1674 3.1 04:58:38 10° N 05:02:23 63° E 05:06:06 10° SSE
PSLV R/B 4.0 05:01:11 10° N 05:04:56 51° WNW 05:08:17 12° SSW
Centaur D-1A AC-31 4.2 04:45:16 15° SW 05:05:22 34° S 05:11:22 10° ESE
GEOS 3 Rocket 4.4 05:01:07 10° S 05:05:33 28° WSW 05:09:59 10° WNW
Cosmos-2242 3.8 05:02:53 15° SW 05:06:02 35° WNW 05:10:00 10° N
Cosmos 2221 4.2 05:03:12 10° SSE 05:07:01 33° E 05:10:53 10° NNE
Cosmos 1470 2.8 05:03:40 10° S 05:07:36 82° E 05:11:35 10° N
Cosmos 2297 Rocket 3.7 05:13:31 10° WNW 05:16:37 15° W 05:19:44 10° SW
Milstar 3 Cent rocket 3.7 05:16:48 11° WSW 05:21:59 36° S 05:31:12 10° ESE
Okean-O 3.0 05:17:41 10° NNE 05:22:08 70° ESE 05:26:32 10° S
Resurs 1-4 Rocket 3.7 05:20:52 10° NNW 05:24:20 18° WNW 05:27:46 10° WSW
Cosmos 372 Rocket 3.9 05:19:26 10° NNW 05:24:33 81° WSW 05:29:38 10° SSE
PSLV R/B 3.8 05:20:26 10° NNE 05:24:39 73° ESE 05:28:54 10° S
Cosmos 1842 Rocket 4.0 05:22:54 10° SSW 05:27:10 44° W 05:31:28 10° N
Cosmos 1125 Rocket 3.8 05:22:16 10° NNW 05:27:11 43° WSW 05:32:03 10° S
Cosmos 2026 Rocket 4.4 05:24:18 10° NNW 05:30:16 44° W 05:36:09 10° SSW
DELTA 2 R/B (2) 2.8 05:29:51 10° W 05:31:56 80° S 05:33:38 10° E
ARGOS Delta rocket 4.2 05:26:58 10° N 05:31:58 51° WNW 05:36:40 10° SSW
SL-16 R/B 2.3 05:27:17 10° SSW 05:32:57 86° WNW 05:38:40 10° NNE
CZ-3 R/B 3.5 05:15:42 10° WSW 05:38:35 41° S 05:44:56 10° ESE
